RH
79 78 80 80 78 79 77 70 77 91 91 92 88 87 90 90 94 97 98 97 98 98 98 99 97 96 97 96 96 96 97 97 98 87 79 70 80 86 87 84 86 89 88
79 82 85 83 84 87 88 89 87 92 91 92 91 90 89 88 90 94 97 96 97 98 96 96 95 88 93 92 94 96 98 97 99 97 88 90 90 88 86 90 90 88 91
80 84 85 88 88 90 90 89 91 89 88 86 83 84 83 85 87 88 90 92 92 92 90 88 88 87 90 90 90 92 92 87 92 97 96 91 92 97 97 97 97 97 95
81 84 87 88 88 88 87 88 89 84 85 82 82 82 82 83 85 85 83 85 85 86 88 87 86 86 88 87 85 88 87 91 91 92 91 89 91 96 99 100 98 100 99
86 87 88 86 83 85 87 88 89 84 82 81 78 82 81 82 84 84 82 84 85 86 85 80 88 93 93 93 88 90 91 92 90 92 93 95 96 97 99 97 99 100 100
86 90 87 85 88 92 90 87 88 89 85 84 87 88 86 84 91 90 82 81 81 82 86 87 85 89 85 90 90 89 87 93 94 97 97 94 91 91 90 98 99 100 100
77 90 91 95 96 94 90 82 89 94 96 92 85 80 83 80 88 88 90 84 87 87 87 87 82 79 88 84 83 83 88 86 85 90 96 95 97 95 94 97 99 99 97
78 84 82 78 89 98 95 90 80 83 82 84 82 79 80 77 83 82 84 78 82 83 84 82 83 82 83 85 83 82 80 78 79 76 81 82 81 81 83 88 97 99 99
85 82 84 84 85 82 87 84 82 80 82 85 81 82 83 81 80 82 75 78 78 82 80 82 81 81 84 81 84 88 92 90 83 80 78 76 76 77 80 89 98 98 97
86 84 78 79 83 87 84 83 80 76 76 77 82 82 84 83 80 81 76 80 82 80 78 80 83 80 79 79 82 92 94 91 91 94 91 77 75 77 79 82 90 98 98
86 84 85 77 80 78 80 80 80 80 80 84 84 84 84 80 79 81 80 76 80 85 82 83 81 79 81 80 79 88 91 86 88 89 92 88 88 89 85 85 87 94 97
87 88 90 91 83 83 89 87 87 85 87 87 86 81 80 83 81 82 81 79 77 85 87 82 81 78 78 80 81 83 86 84 87 87 88 89 89 89 90 89 94 90 90
90 95 92 92 92 90 89 88 84 86 84 83 81 82 80 81 82 82 82 80 78 79 77 77 76 77 76 75 79 82 82 86 87 90 91 88 87 89 89 87 93 90 97
93 91 89 90 90 89 83 80 85 84 84 84 85 85 83 81 82 80 82 82 81 76 78 77 76 74 76 78 80 81 84 88 90 91 90 86 87 88 88 84 87 87 84
92 89 90 86 88 87 85 83 82 82 82 88 89 87 88 88 86 77 81 86 86 80 88 83 85 83 84 85 85 87 86 87 90 90 90 90 88 88 88 84 85 85 87
90 87 83 82 81 76 82 88 76 77 77 78 76 78 84 75 75 74 77 81 80 77 88 89 90 89 90 90 91 89 87 89 92 90 88 88 90 89 89 86 84 86 88
92 89 84 83 83 82 81 81 87 85 77 77 79 74 73 76 79 77 77 82 86 80 91 92 92 92 93 92 92 91 92 91 90 90 90 89 89 88 88 90 88 87 88
90 87 86 85 86 86 84 83 83 83 85 84 81 79 80 78 81 85 78 79 89 89 92 94 94 94 93 93 92 93 91 90 90 90 90 90 91 90 90 91 91 92 90
92 88 89 88 88 88 89 86 85 84 85 86 88 86 88 78 83 86 86 90 92 93 94 93 94 94 93 93 93 93 92 93 93 92 91 91 91 89 91 91 88 91 88
95 91 90 91 90 90 90 90 88 87 88 89 89 87 89 90 89 89 92 92 92 93 94 94 93 93 94 94 94 94 92 92 92 92 92 91 90 89 90 90 90 89 90
94 94 92 90 94 92 92 93 89 89 89 89 87 89 88 91 87 87 88 89 90 90 91 91 91 89 89 89 91 93 93 92 92 92 92 91 91 91 90 88 88 89 90
95 96 95 95 93 94 94 94 92 91 89 88 86 88 89 92 87 86 84 83 86 87 88 88 88 87 89 89 89 87 88 91 92 92 91 92 90 90 89 89 89 89 89
94 94 96 95 93 95 97 96 95 93 91 90 88 88 91 92 90 85 82 83 84 85 87 89 87 88 87 90 88 87 86 86 90 93 92 91 91 90 90 90 89 81 82
92 94 95 95 95 96 96 95 94 94 91 91 92 91 88 90 91 90 88 83 84 84 86 89 89 87 88 90 89 89 87 87 88 90 90 90 90 92 90 90 83 80 80
92 94 94 95 96 95 95 93 92 92 92 91 92 91 88 88 90 91 90 90 87 85 82 85 86 85 86 88 90 90 92 96 90 93 88 86 86 87 90 88 84 80 79
91 92 92 94 96 94 94 92 93 91 92 91 91 90 88 89 87 88 89 91 91 88 84 84 82 82 81 83 85 91 95 96 91 93 85 82 84 85 87 85 83 81 78
Wind_Speed
12 11 10 9 10 11 9 9 8 7 8 8 7 7 5 6 5 6 8 8 8 8 6 7 9 6 6 6 7 7 8 8 11 11 10 11 10 10 7 8 9 9 9
11 10 10 10 9 9 9 9 7 7 9 8 9 9 9 9 9 8 8 8 7 7 6 7 7 4 7 7 5 7 6 6 7 13 9 9 10 10 12 9 6 7 8
10 10 11 11 11 12 11 11 11 10 11 11 12 12 10 10 9 9 9 8 9 9 9 9 9 8 7 6 5 5 5 6 6 5 5 4 4 3 5 4 4 5 5
10 9 10 11 12 11 12 13 11 10 12 12 12 12 11 11 9 8 9 8 9 10 9 9 9 9 8 8 7 8 7 7 7 6 6 7 7 5 3 4 8 2 6
10 10 11 9 10 11 13 13 13 13 12 11 13 12 12 11 8 7 9 9 8 9 9 9 10 8 10 9 6 8 8 8 7 7 7 6 7 8 8 6 9 8 7
10 11 9 10 10 11 11 13 12 12 12 13 12 12 12 9 16 15 9 10 10 9 8 8 8 9 9 9 10 8 6 6 7 5 4 9 10 11 9 9 9 9 7
10 10 11 10 9 9 10 14 14 11 8 14 9 14 12 13 16 16 12 9 9 9 8 9 8 6 8 8 9 10 8 8 8 7 8 8 10 10 11 13 12 10 10
11 10 10 10 10 8 11 15 11 10 10 7 10 12 12 13 15 14 11 9 9 10 10 10 8 9 11 9 9 9 8 7 10 8 9 10 11 12 11 10 12 12 10
8 7 7 9 9 11 12 12 8 8 9 9 9 10 11 12 17 15 9 7 8 10 8 9 9 10 14 13 8 9 7 7 9 12 12 13 14 14 13 8 8 9 8
5 6 6 8 7 9 8 8 8 8 8 7 9 10 11 11 20 19 11 5 8 5 6 8 14 10 12 13 9 8 9 10 10 11 8 8 10 11 13 9 8 8 8
4 6 6 6 8 9 9 8 7 7 7 8 9 9 9 11 13 18 17 7 6 5 6 7 7 12 12 13 13 8 8 9 10 8 7 7 8 8 8 9 9 7 7
5 5 6 6 6 6 8 7 7 6 7 7 6 6 7 8 15 16 18 16 12 7 7 6 6 12 13 16 12 13 13 11 7 8 8 8 8 9 9 9 8 8 7
3 3 4 5 5 5 7 6 6 6 6 6 5 6 7 7 8 18 17 17 14 7 5 6 8 11 11 8 14 17 13 8 8 8 8 9 8 8 9 9 6 8 4
4 3 3 4 5 6 5 5 5 5 4 5 6 7 6 7 8 8 7 7 9 6 6 5 5 6 10 9 8 9 8 8 8 7 8 8 7 8 9 9 8 9 7
5 4 3 3 3 5 5 5 5 7 5 5 5 4 4 5 7 8 8 5 4 3 2 3 5 6 7 8 8 8 8 8 8 8 8 8 9 8 8 8 8 7 8
6 4 3 3 2 2 4 5 7 7 8 10 9 7 3 5 6 4 6 8 7 6 3 5 6 7 7 7 7 7 7 8 8 8 8 8 8 8 8 7 7 8 8
7 6 4 4 3 3 3 4 5 3 5 6 9 4 3 3 5 4 3 7 13 5 5 5 4 5 5 5 6 6 6 7 6 6 7 8 8 8 8 8 8 7 7
8 9 6 6 5 4 4 3 3 3 3 2 1 1 3 2 5 7 2 2 3 5 4 3 3 3 3 3 4 5 5 5 6 6 7 7 7 7 7 8 8 8 7
9 8 8 6 6 5 4 4 3 3 2 1 1 3 2 1 3 4 8 2 3 3 1 1 1 2 3 3 3 4 5 5 5 6 6 6 6 6 7 6 6 7 7
10 12 10 8 7 7 6 6 5 5 5 4 4 3 2 2 3 1 2 2 3 2 2 1 1 2 2 2 3 4 3 5 5 5 5 5 6 5 5 6 6 6 6
8 9 12 8 8 8 8 8 7 6 6 6 5 4 4 3 3 3 4 3 3 2 2 2 2 2 2 2 2 2 3 3 3 3 4 5 4 5 5 4 5 5 6
9 9 10 10 9 9 9 8 7 7 6 6 5 5 9 4 4 4 4 3 4 3 3 3 3 2 2 2 3 3 3 3 3 3 3 2 3 3 3 3 4 4 5
10 11 10 10 10 10 8 8 8 8 7 7 6 6 6 6 6 6 5 4 4 4 4 4 3 3 2 3 2 3 3 2 3 3 3 2 1 1 1 2 2 3 3
11 11 11 9 9 9 8 8 8 9 8 7 7 7 7 7 7 7 6 5 4 5 4 4 4 5 3 3 3 3 3 3 2 3 4 3 2 2 1 1 1 2 2
11 11 11 10 9 9 8 8 8 8 8 8 8 7 7 7 7 7 6 6 6 6 6 5 5 6 7 7 6 5 5 5 4 3 3 3 3 2 2 2 3 2 2
11 11 10 8 8 8 8 8 8 8 8 8 7 7 8 8 7 8 7 8 7 7 8 6 7 9 8 7 8 6 7 7 5 5 3 3 3 3 3 3 4 3 4
Wind_Direction
338 339 338 333 321 311 266 266 248 212 201 212 218 224 229 243 254 234 231 234 226 228 231 225 240 274 260 249 245 244 248 247 260 268 265 280 282 260 244 230 239 240 248
347 352 357 359 3 7 20 14 12 85 57 69 75 71 58 43 31 38 47 39 59 60 41 60 40 27 40 19 5 9 346 316 292 290 303 301 296 295 289 275 252 245 248
359 9 14 15 24 27 26 29 43 63 70 67 65 64 55 49 42 42 45 51 58 58 52 49 42 35 35 8 4 1 350 337 329 321 317 329 309 344 328 309 300 285 263
8 22 25 25 29 33 36 34 39 55 73 71 69 70 57 53 48 51 58 60 59 57 56 57 49 40 29 12 5 0 348 340 338 335 330 326 331 340 296 310 314 301 290
6 25 26 28 42 40 43 45 41 44 53 62 74 69 58 51 40 61 65 67 69 72 64 66 51 36 39 20 11 6 351 359 347 340 337 331 323 329 323 320 302 308 292
31 26 23 37 47 48 48 46 51 48 44 48 55 58 63 56 48 46 67 75 72 70 63 64 53 25 17 15 14 8 13 353 354 333 316 328 321 322 321 317 310 314 325
44 37 25 21 35 52 60 57 44 39 56 52 40 63 57 61 52 48 51 66 65 65 59 50 39 18 7 12 21 29 26 16 356 328 323 322 315 319 317 313 311 302 285
38 40 39 41 33 42 58 58 47 44 61 72 57 58 58 55 58 62 59 72 75 68 57 46 41 27 17 12 16 17 14 359 352 346 339 326 323 322 319 315 304 289 280
39 47 42 66 55 49 58 67 62 69 66 63 60 56 57 54 50 55 65 69 69 61 53 42 34 31 18 15 15 9 355 359 346 343 338 336 334 337 341 326 328 319 314
41 46 38 67 72 72 77 80 75 74 78 80 74 59 51 46 42 43 46 55 62 52 48 35 30 28 26 30 27 10 1 353 344 342 342 346 350 349 347 355 333 322 322
22 42 43 59 66 67 68 62 68 71 69 64 63 57 53 44 43 43 44 50 51 51 40 28 17 22 33 35 32 25 11 342 351 352 347 350 353 350 351 351 348 340 337
45 50 47 53 64 63 72 68 64 71 73 67 66 62 45 37 35 35 40 43 40 50 33 23 6 20 38 34 28 19 17 11 3 5 1 357 353 350 344 341 338 349 4
109 78 84 83 87 89 90 84 78 66 64 59 54 53 38 23 25 26 29 33 37 45 30 17 16 23 32 33 29 25 19 10 12 11 4 355 351 338 333 342 337 347 10
157 134 83 72 78 78 83 76 76 71 75 69 59 50 38 30 21 16 18 17 23 26 12 18 7 26 43 38 28 25 23 13 13 5 358 348 345 356 1 357 357 357 22
162 151 129 100 89 96 77 84 82 65 61 73 65 58 36 31 15 13 15 6 353 12 298 30 34 23 26 23 21 17 15 11 15 4 1 356 359 358 9 6 8 19 29
173 174 168 158 129 109 119 102 71 88 82 81 71 57 39 16 1 16 28 24 18 22 44 37 32 25 24 12 12 3 8 9 8 4 7 6 1 4 4 13 17 26 25
186 176 172 184 180 171 180 181 159 101 84 74 73 30 54 24 27 30 37 40 36 36 60 41 31 24 15 360 358 1 7 0 341 13 15 12 8 8 9 16 15 16 24
191 185 187 189 188 178 184 178 165 177 185 166 155 348 321 37 45 42 74 105 42 44 50 31 18 353 359 4 355 3 355 5 12 12 22 16 17 19 21 20 16 19 16
188 188 191 191 192 187 172 174 173 169 183 209 250 233 276 174 78 52 52 93 102 79 43 338 333 345 349 348 348 358 358 7 7 17 23 20 21 25 26 16 25 26 22
192 193 188 189 192 197 190 189 186 193 186 199 215 223 178 227 220 175 95 145 137 160 193 233 287 291 328 348 352 354 359 21 23 24 24 25 23 29 42 24 13 20 32
186 187 194 196 197 199 201 204 203 197 198 196 207 195 204 252 230 217 190 176 169 195 222 236 258 284 315 324 357 357 352 20 19 30 32 28 25 34 28 37 38 30 13
185 183 188 196 194 199 203 199 199 203 207 208 201 201 213 200 222 231 226 212 195 203 212 251 264 271 305 315 337 338 340 346 356 359 36 41 38 45 43 35 26 41 43
189 188 190 195 196 194 197 203 202 203 205 206 200 196 198 209 210 216 224 220 213 218 215 229 238 250 245 253 259 279 305 336 337 321 325 349 8 98 77 81 61 38 42
194 196 196 198 197 194 201 201 203 205 205 205 203 208 209 209 214 217 217 215 221 231 231 232 241 247 256 255 261 257 255 268 271 273 286 286 252 213 197 157 143 139 136
196 198 201 199 197 198 195 203 205 206 207 209 208 209 211 211 214 219 218 212 214 221 226 223 235 245 247 256 265 273 282 275 254 268 241 262 271 240 204 205 190 179 171
197 200 202 197 195 197 199 199 201 200 207 209 211 212 211 208 213 214 211 210 213 219 221 219 224 228 242 251 253 263 283 281 237 224 254 245 235 232 226 218 206 213 195